Hauptseite
METAR-TAF:

METAR-TAF

Flughäfen :

Colmar, Frankreich

Flughafen Colmar

Breite: 48-06-37N, Länge: 7-21-33E, Höhe: 191 m

Beobachtung

Neuester Wetterbericht von vor 20 Minuten, um 07:30 UTC
Wind 4 kt aus Süd
Temperatur 22°C
Luftfeuchtigkeit 73%
Luftdruck 1019 hPa
Sichtweite 10 km oder mehr

METAR: LFGA 170730Z AUTO 18004KT 9999 ////// 22/17 Q1019

Zeit: 09:50 (07:50 UTC)


TAF: fehlend

Wetterbeobachtungen und Prognosen von mehr als 4000 Flughäfen (METAR und TAF Bericht).

Die verfügbaren Stationen werden durch gelbe und rote Markierungen auf der Karte dargestellt.

Führen Sie die Maus auf sie, um den Namen der Station zu sehen.

Darauf klicken, um die Beobachtung von Wetterbeobachtungen und Prognosen zu sehen.

Um die Karte zu ändern : klicken Sie auf den grünen Tasten mit einem schwarzen Kreuz Zum Vergrößern, auf den grünen Button mit einem Gedankenstrich zu verkleinern, oder auf die grünen Pfeile für benachbarte Karten.


METAR-TAF: